Weather in Zanino-Pochinki

Russia / Ryazan Oblast     54°36′29″N   41°16′48″E
temp.,
°C
wind,
m/s
gust,
m/s
humid.,
%
clouds,
%
prec.,
mm/h
press.,
hPa
HPBL,
m
26 february, fri
fri2600:00+1wnw3899100 0.0 1013320
03:00−1w3597100 0.0 1013131
06:00+1sw3599100 0.1 1011151
09:00+2sw411100100 1.8 1009297
12:00+2wsw412100100 0.1 1006428
15:00+2wsw61599100 0.3 1004513
18:00+3w71599100 0.4 1002695
21:00+2w61492100 0.5 1002938
27 february, sat
sat2700:00+1w61392100 0.1 1001944
03:00+1w71392100 0.1 1001812
06:000w7149799 0.1 999823
09:00−3nnw8139599 0.9 1001785
12:00−8nnw61185100 0.3 1003776
15:00−8nnw51086100 0.4 1006747
18:00−9nnw4990100 0.1 1008617
21:00−12nnw399599 0.1 1011378
28 february, sun
sun2800:00−13nnw389596 0.0 1012302
03:00−14nnw369685 0.0 1014186
06:00−15nnw259744 0.0 1015123
09:00−13nnw249344 0.0 1016244
12:00−10nnw248989 0.0 1016439
15:00−8nnw358894 0.1 1017595
18:00−9nnw129699 0.1 101736
21:00−11nne129796 0.1 102021
1 march, mon
mon100:00−13ene129673 0.0 102120
03:00−14nnw119643 0.0 102320
06:00−14nw129744 0.0 102420
09:00−11nw129371 0.0 1026131
12:00−7wnw238895 0.0 1025332
15:00−5wsw359196 0.1 1025455
18:00−5wsw4894100 0.1 1023489
21:00−5wsw41194100 0.1 1021382
2 march, tue
tue200:00−2wsw51196100 0.2 1017455
03:000w51097100 0.5 1015628
06:00+1wnw51097100 0.1 1014554
09:00+1wnw51198100 0.3 1013630
12:00+1nw51199100 0.2 1012917
15:00+1nw5128995 0.4 10121158
18:000nw5128892 0.1 1012880
21:00−1nw4129392 0.3 1013729